Time,TemperatureF,DewpointF,PressureIn,WindDirection,WindDirectionDegrees,WindSpeedMPH,WindSpeedGustMPH,Humidity,HourlyPrecipIn,Conditions,Clouds,dailyrainin,SoftwareType,DateUTC
2013-11-03 02:42:00,48.0,-99.9,29.82,WSW,246,-999.0,5.0,-999,0.00,,,-99.99,,2013-11-03 07:42:00,
2013-11-03 02:52:00,48.0,-99.9,29.82,WSW,246,-999.0,5.0,-999,0.00,,,-99.99,,2013-11-03 07:52:00,
2013-11-03 03:42:00,50.0,-99.9,29.85,NW,306,-999.0,8.0,-999,0.00,,,-99.99,,2013-11-03 08:42:00,
2013-11-03 03:52:00,50.0,-99.9,29.85,NW,306,-999.0,8.0,-999,0.00,,,-99.99,,2013-11-03 08:52:00,
2013-11-03 03:53:00,50.0,-99.9,29.86,North,6,-999.0,10.0,-999,0.00,,,-99.99,,2013-11-03 08:53:00,
2013-11-03 04:42:00,50.0,-99.9,29.86,North,6,-999.0,10.0,-999,0.00,,,-99.99,,2013-11-03 09:42:00,
2013-11-03 04:53:00,49.0,-99.9,29.89,NNW,329,9.0,10.0,-999,0.00,,,-99.99,,2013-11-03 09:53:00,
2013-11-03 05:42:00,49.0,-99.9,29.89,NNW,329,9.0,10.0,-999,0.00,,,-99.99,,2013-11-03 10:42:00,
2013-11-03 06:43:00,47.0,-99.9,29.92,North,-999,6.0,13.0,-999,0.00,,,-99.99,,2013-11-03 11:43:00,
2013-11-03 06:52:00,47.0,-99.9,29.92,North,-999,6.0,13.0,-999,0.00,,,-99.99,,2013-11-03 11:52:00,
2013-11-03 07:42:00,46.0,-99.9,29.97,NNW,329,10.0,11.0,-999,0.00,,,-99.99,,2013-11-03 12:42:00,
2013-11-03 07:52:00,46.0,-99.9,29.97,NNW,329,10.0,11.0,-999,0.00,,,-99.99,,2013-11-03 12:52:00,
2013-11-03 08:42:00,46.0,-99.9,30.01,NNW,335,-999.0,8.0,-999,0.00,,,-99.99,,2013-11-03 13:42:00,
2013-11-03 08:52:00,46.0,-99.9,30.01,NNW,335,-999.0,8.0,-999,0.00,,,-99.99,,2013-11-03 13:52:00,
2013-11-03 09:42:00,45.0,-99.9,30.07,North,351,9.0,10.0,-999,0.00,,,-99.99,,2013-11-03 14:42:00,
2013-11-03 09:52:00,45.0,-99.9,30.07,North,351,9.0,10.0,-999,0.00,,,-99.99,,2013-11-03 14:52:00,
2013-11-03 09:53:00,47.0,-99.9,30.11,North,358,6.0,11.0,-999,0.00,,,-99.99,,2013-11-03 14:53:00,
2013-11-03 10:43:00,47.0,-99.9,30.11,North,358,6.0,11.0,-999,0.00,,,-99.99,,2013-11-03 15:43:00,
2013-11-03 10:53:00,47.0,-99.9,30.12,NW,306,-999.0,9.0,-999,0.00,,,-99.99,,2013-11-03 15:53:00,
2013-11-03 11:43:00,47.0,-99.9,30.12,NW,306,-999.0,9.0,-999,0.00,,,-99.99,,2013-11-03 16:43:00,
2013-11-03 13:42:00,49.0,-99.9,30.14,WNW,302,3.0,11.0,-999,0.00,,,-99.99,,2013-11-03 18:42:00,
2013-11-03 13:52:00,49.0,-99.9,30.14,WNW,302,3.0,11.0,-999,0.00,,,-99.99,,2013-11-03 18:52:00,
2013-11-03 13:53:00,49.0,-99.9,30.14,NW,312,5.0,12.0,-999,0.00,,,-99.99,,2013-11-03 18:53:00,
2013-11-03 14:42:00,49.0,-99.9,30.14,NW,312,5.0,12.0,-999,0.00,,,-99.99,,2013-11-03 19:42:00,
2013-11-03 15:42:00,50.0,-99.9,30.16,NNW,335,13.0,13.0,-999,0.00,,,-99.99,,2013-11-03 20:42:00,
2013-11-03 15:52:00,50.0,-99.9,30.16,NNW,335,13.0,13.0,-999,0.00,,,-99.99,,2013-11-03 20:52:00,
2013-11-03 15:53:00,50.0,-99.9,30.20,North,11,-999.0,8.0,-999,0.00,,,-99.99,,2013-11-03 20:53:00,
2013-11-03 16:43:00,50.0,-99.9,30.20,North,11,-999.0,8.0,-999,0.00,,,-99.99,,2013-11-03 21:43:00,
2013-11-03 17:43:00,46.0,-99.9,30.23,NW,312,-999.0,14.0,-999,0.00,,,-99.99,,2013-11-03 22:43:00,
2013-11-03 17:52:00,46.0,-99.9,30.23,NW,312,-999.0,14.0,-999,0.00,,,-99.99,,2013-11-03 22:52:00,
2013-11-03 17:53:00,43.0,-99.9,30.28,North,-999,-999.0,9.0,-999,0.00,,,-99.99,,2013-11-03 22:53:00,
2013-11-03 18:42:00,43.0,-99.9,30.28,North,-999,-999.0,9.0,-999,0.00,,,-99.99,,2013-11-03 23:42:00,
2013-11-03 19:42:00,40.0,-99.9,30.32,NNW,345,-999.0,15.0,-999,0.00,,,-99.99,,2013-11-04 00:42:00,
2013-11-03 19:52:00,40.0,-99.9,30.32,NNW,345,-999.0,15.0,-999,0.00,,,-99.99,,2013-11-04 00:52:00,
2013-11-03 20:42:00,38.0,-99.9,30.35,NNW,334,-999.0,13.0,-999,0.00,,,-99.99,,2013-11-04 01:42:00,
2013-11-03 20:52:00,38.0,-99.9,30.35,NNW,334,-999.0,13.0,-999,0.00,,,-99.99,,2013-11-04 01:52:00,
2013-11-03 20:53:00,38.0,-99.9,30.36,North,349,8.0,14.0,-999,0.00,,,-99.99,,2013-11-04 01:53:00,
2013-11-03 21:42:00,38.0,-99.9,30.36,North,349,8.0,14.0,-999,0.00,,,-99.99,,2013-11-04 02:42:00,
2013-11-03 21:53:00,37.0,-99.9,30.39,WNW,296,-999.0,6.0,-999,0.00,,,-99.99,,2013-11-04 02:53:00,
2013-11-03 22:44:00,37.0,-99.9,30.39,WNW,296,-999.0,6.0,-999,0.00,,,-99.99,,2013-11-04 03:44:00,
2013-11-03 22:53:00,35.0,-99.9,30.41,NW,312,-999.0,9.0,-999,0.00,,,-99.99,,2013-11-04 03:53:00,
2013-11-03 23:43:00,35.0,-99.9,30.41,NW,312,-999.0,9.0,-999,0.00,,,-99.99,,2013-11-04 04:43:00,
2013-11-03 23:53:00,33.0,-99.9,30.43,NNW,335,-999.0,-999.0,-999,0.00,,,-99.99,,2013-11-04 04:53:00,